Погода в Верхнедвинске

Беларусь     55°46′59″N   27°56′10″E
темп.,
°C
ветер,
м/с
пор.,
м/с
влажн.,
%
обл.,
%
осадки,
мм/ч
давл.,
гПа
погр.,
м
25 мая, ср
ср2500:00+10ююв11690 0.0 101410
03:00+8в22740 0.0 101511
06:00+8вюв22810 0.0 101523
09:00+14юв22660 0.0 1015335
12:00+19ююз235617 0.0 10151097
15:00+20ююз3547100 0.1 10132391
18:00+18юз3566100 0.0 1013924
21:00+14ю3379100 0.0 101225
26 мая, чт
чт2600:00+13ю3776100 0.0 1011154
03:00+13ю3878100 0.0 1008214
06:00+11зсз61195100 0.9 1007523
09:00+10зсз51095100 4.1 1007655
12:00+15зсз686030 0.1 10061649
15:00+18з7104764 0.1 10052410
18:00+14з71078100 0.7 1004899
21:00+10зюз5119348 2.4 1005506
27 мая, пт
пт2700:00+10з71287100 0.8 1005922
03:00+9з71292100 0.9 1005728
06:00+7зюз51394100 0.0 1006570
09:00+11зюз7107667 0.0 1005925
12:00+13зюз71071100 0.2 10041425
15:00+12юз7974100 0.4 10021064
18:00+12юз6118584 0.2 1000974
21:00+10зюз612785 0.7 999544
28 мая, сб
сб2800:00+7зюз7138580 0.1 1000830
03:00+7зюз81385100 0.6 9991298
06:00+7зюз81389100 1.1 1000961
09:00+8зюз6117897 1.2 10001359
12:00+10зюз697261 0.6 10011486
15:00+12зюз786375 1.1 10011674
18:00+12зюз576552 0.6 10021419
21:00+9зюз4887100 0.9 1003242
29 мая, вс
вс2900:00+8юз4996100 1.3 1004329
03:00+8зюз4997100 1.6 1005413
06:00+9зюз5996100 0.5 1007594
09:00+11з688673 0.9 1008790
12:00+12зюз6879100 1.4 10091092
15:00+14зюз687099 2.4 10101414
18:00+13зюз577560 0.6 10111067
21:00+11юз34895 0.9 101252